Simultaneous Nadir Overpasses (SNOs) Predictions

Prediction of SNOs between GOES-16 and NPP Satellite Orbit:

Table of predicted SNOs for the next 14.0 days since TLE Epoch: 3/7/2025
Index Date Time (GOES-16) GOES-16 Lat,Lon NPP Lat,Lon Distance(km) Time Diff (sec)
1 03/09/2025 18:27:17 0.06, -75.26 -0.06, -75.75 56.67 80
2 03/10/2025 18:11:11 0.05, -75.27 0.98, -71.22 462.23 80
3 03/12/2025 06:32:57 -0.05, -75.30 0.24, -76.47 133.21 80
4 03/13/2025 06:11:31 -0.05, -75.32 -0.80, -71.94 386.01 80
5 03/14/2025 18:33:25 0.04, -75.35 -0.38, -77.23 214.33 80
6 03/15/2025 18:17:20 0.04, -75.37 0.67, -72.70 305.56 80
7 03/17/2025 06:39:05 -0.04, -75.42 0.53, -77.95 288.14 80
8 03/18/2025 06:17:40 -0.04, -75.44 -0.52, -73.42 231.69 80
9 03/19/2025 18:39:33 0.04, -75.47 -0.71, -78.70 368.40 80
10 03/20/2025 18:23:28 0.04, -75.50 0.34, -74.17 151.90 80
